www.pogodaiklimat.ru

Погода и климат >> Архив погоды >> Новая Зеландия >> Гисборн


ПОГОДА в Гисборне

  • Прогноз погоды в Гисборне
  • Монитор погоды в Гисборне

АРХИВ ПОГОДЫ в Гисборне

Время (UTC), дата Ветер
(напр.,м/с)
 
Видим.   Явления Облачность Т
(С)
Тd
(С)
f
(%)
Тe
(С)
Тes
(С)
Комфортность P
(гПа)
Po
(гПа)
Тmin
(С)
Tmax
(С)
R
(мм)
R24
(мм)
S
(см)
09 18.03 СЗ 1 20 км н/о +16.5 +13.1 80 +17 +17 1025.6 1025.1
12 18.03 С 1 20 км н/о +14.1 +12.5 90 +15 +15 1025.5 1025.0 +21.1
15 18.03 С 1 20 км н/о +14.6 +13.2 91 +16 +16 1025.4 1024.9
18 18.03 СЗ 1 20 км н/о +14.8 +13.3 91 +15 +15 1025.2 1024.7
21 18.03 СЗ 2 20 км н/о +16.8 +13.2 79 +17 +17 1026.2 1025.7
00 19.03 Ю 2 10 км н/о +20.0 +13.0 64 +23 +23 комфорт 1025.4 1024.9 +13.4
03 19.03 ЮВ 4 20 км н/о +20.2 +13.1 64 +22 +22 комфорт 1025.1 1024.6
06 19.03 В 2 20 км н/о +18.4 +13.3 72 +19 +19 1025.3 1024.8
09 19.03 С 1 20 км н/о +16.7 +14.3 86 +18 +18 1026.3 1025.8
12 19.03 СЗ 2 20 км н/о +15.3 +13.8 91 +15 +15 1026.0 1025.5 +20.9
15 19.03 СЗ 2 20 км н/о +15.1 +13.6 91 +15 +15 1025.1 1024.6
18 19.03 СЗ 2 20 км н/о +15.3 +14.0 92 +15 +15 1025.0 1024.5
21 19.03 СЗ 2 20 км н/о +17.7 +14.7 83 +18 +18 1026.0 1025.5
00 20.03 Ю 2 10 км н/о +18.1 +15.9 87 +19 +19 1025.7 1025.2 +14.4
03 20.03 ЮВ 4 10 км н/о +20.3 +14.9 71 +23 +23 комфорт 1025.0 1024.5
06 20.03 ЮВ 3 20 км н/о +18.8 +14.3 75 +20 +20 1025.1 1024.6 0.2
09 20.03 ЮЗ 2 4000 м н/о +16.3 +15.0 92 +17 +17 1026.7 1026.2
12 20.03 С 2 10 км н/о +16.3 +15.6 96 +17 +17 1026.8 1026.3 +21.2 0.2
15 20.03 СЗ 2 10 км н/о +15.9 +15.4 97 +16 +16 1026.5 1026.0
18 20.03 С 1 10 км н/о +15.3 +15.0 98 +16 +16 1026.8 1026.3 2
21 20.03 З 1 10 км н/о +16.7 +16.1 96 +18 +18 1027.9 1027.4
00 21.03 ЮВ 4 20 км н/о +20.0 +16.1 78 +23 +23 комфорт 1027.9 1027.4 +14.8 5
03 21.03 ЮВ 4 20 км н/о +19.7 +15.3 76 +22 +22 комфорт 1027.2 1026.7
06 21.03 Ю 2 20 км н/о +18.3 +15.2 82 +19 +19 1027.2 1026.7
09 21.03 ЮВ 2 20 км н/о +18.6 +15.0 80 +20 +20 1028.0 1027.5
12 21.03 СЗ 2 20 км н/о +16.1 +15.3 95 +16 +16 1028.2 1027.7 +20.8 0.6
15 21.03 СВ 1 10 км н/о +15.3 +15.0 98 +16 +16 1027.8 1027.3
18 21.03 штиль 0 4000 м н/о +14.7 +14.3 97 +14 +14 1027.9 1027.4 0.6
21 21.03 В 2 4000 м н/о +16.5 +15.4 93 +17 +17 1028.7 1028.2
00 22.03 Ю 2 20 км н/о +20.2 +14.6 70 +23 +23 комфорт 1027.5 1027.0 +14.0 2
03 22.03 В 3 20 км н/о +20.9 +13.1 61 +24 +24 комфорт 1026.1 1025.6
06 22.03 В 2 20 км н/о +18.4 +12.6 69 +20 +20 1025.8 1025.3
09 22.03 З 1 20 км н/о +15.7 +14.4 92 +16 +16 1026.5 1026.0
12 22.03 С 1 20 км н/о +15.0 +13.7 92 +16 +16 1025.9 1025.4 +21.5
15 22.03 СВ 1 10 км н/о +11.7 +11.0 95 +12 +12 1025.2 1024.7
18 22.03 СЗ 1 4000 м н/о +11.0 +10.7 98 +11 +11 1024.9 1024.4
21 22.03 С 2 10 км н/о +17.8 +14.4 80 +19 +19 1025.3 1024.8
00 23.03 ЮВ 3 10 км н/о +20.3 +13.2 64 +23 +23 комфорт 1024.5 1024.0 +10.5
03 23.03 В 3 20 км н/о +21.3 +13.1 59 +24 +24 комфорт 1023.4 1022.9
06 23.03 В 2 20 км н/о +18.4 +11.8 65 +20 +20 1023.6 1023.1
09 23.03 СЗ 1 20 км н/о +14.4 +12.3 87 +15 +15 1024.5 1024.0
12 23.03 С 1 4000 м н/о +15.6 +13.5 87 +16 +16 1024.4 1023.9 +21.6
15 23.03 штиль 0 20 км н/о +15.2 +13.6 90 +15 +15 1023.8 1023.3
18 23.03 СЗ 1 20 км н/о +14.5 +13.1 91 +15 +15 1024.0 1023.5
21 23.03 СЗ 3 20 км н/о +18.6 +12.8 69 +20 +20 1024.7 1024.2
00 24.03 С 2 20 км н/о +23.3 +13.8 55 +27 +27 душно 1023.7 1023.2 +14.1
03 24.03 С 3 20 км н/о +22.7 +15.3 63 +27 +27 душно 1022.7 1022.2
06 24.03 СВ 3 20 км н/о +20.1 +14.5 70 +23 +23 комфорт 1023.4 1022.9
09 24.03 СЗ 2 20 км н/о +15.8 +13.1 84 +16 +16 1024.9 1024.4
12 24.03 СЗ 1 20 км н/о +13.4 +11.8 90 +13 +13 1025.4 1024.9 +24.9
15 24.03 С 3 10 км н/о +15.2 +13.0 87 +15 +15 1025.1 1024.6
18 24.03 З 1 10 км н/о +12.3 +10.9 91 +12 +12 1025.6 1025.1
21 24.03 СЗ 4 10 км н/о +20.7 +15.1 70 +24 +24 комфорт 1026.7 1026.2
00 25.03 СЗ 5 20 км н/о +24.4 +15.2 56 +27 +27 жарко 1025.9 1025.4 +11.4
03 25.03 С 6 20 км н/о +24.6 +15.4 57 +28 +28 душно 1024.7 1024.2
06 25.03 СЗ 7 20 км н/о +20.6 +14.2 67 +23 +23 комфорт 1025.5 1025.0

 

Местоположение метеостанции Гисборн (Новая Зеландия): широта -38.65 долгота 177.98 высота над уровнем моря 5 м.

В архиве по умолчанию представлена погода в Гисборне за последнюю неделю. Архивные данные за месяц целиком и за предыдущие месяцы, начиная с января 2011 года, Вы можете получить, выбрав интересующий диапазон дат из раскрывающегося списка и нажав кнопку "Ввод!".


*Определитесь, кто Вы:
робот инопланетянин человек

Внимание! Время в таблицах - всемирное. Для получения местного времени необходимо прибавить поправку, которая равна 12 ч.

Смотрите также архив погоды в соседних городах и на ближайших метеорологических станциях:

Погода в Хикс-Бей (Новая Зеландия) (126 км)
Погода в Нейпире (Новая Зеландия) (132 км)
Погода на Таупо (Новая Зеландия) (167 км)
Погода в Тауранге (Новая Зеландия) (191 км)
Погода на Уэйауру (Новая Зеландия) (219 км)
Погода в Пальмерстон-Норте (Новая Зеландия) (275 км)
Погода в Тахароа (Новая Зеландия) (290 км)
Погода в Каслпойнт (Новая Зеландия) (292 км)
Погода в Нью-Плимуте (Новая Зеландия) (332 км)
Погода в Окленде (Новая Зеландия) (334 км)

Пояснения к столбцам:

Ветер - указаны скорость ветра в м/с - средняя за 10 мин, порывы в срок и между сроками (в фигурных скобках) и направление, откуда дует ветер: С - северный, СВ - северо-восточный, В - восточный, ЮВ - юго-восточный, Ю - южный, ЮЗ - юго-западный, З - западный, СЗ - северо-западный.
Видимость - горизонтальная дальность видимости в метрах или километрах. При видимости от 1 до 10 км при отсутствии осадков обычно наблюдается дымка, при ухудшении видимости до 1 км и менее - туман. В сухую погоду видимость может ухудшаться дымом, пылью или мглою.
Явления - указаны атмосферные явления, наблюдавшиеся в срок или в последний час перед сроком; фигурными скобками обозначены явления, наблюдавшиеся между сроками (за 1-3 часа до срока); квадратными скобками обозначены град или гололедные отложения с указанием их диаметра в мм.
Облачность - указаны через наклонную черту общая и нижняя облачность в баллах и высота нижней границы облаков в метрах; квадратными скобками обозначены формы облаков: Ci - перистые, Cs - перисто-слоистые, Cc - перисто-кучевые, Ac - высококучевые, As - высокослоистые, Sc - слоисто-кучевые, Ns - слоисто-дождевые, Cu - кучевые, Cb - кучево-дождевые. Подробнее классификацию облаков см. в Атласе облаков (PDF).
T - Температура воздуха - температура, измеренная на высоте 2 м над землей.
Td - Температура точки росы - температура, при понижении до которой содержащийся в воздухе водяной пар достигнет насыщения.
f - Относительная влажность воздуха - влажноcть воздуха, измеренная на высоте 2 м над землей.
Te - Эффективная температура - температура, которую ощущает одетый по сезону человек в тени. Характеристика душности погоды. При расчете учитывается влияние влажности воздуха и скорости ветра на теплоощущения человека.
Tes - Эффективная температура на солнце - температура, которую ощущает человек, с поправкой на солнечный нагрев. Характеристика знойности погоды. Зависит от высоты солнца над горизонтом, облачности и скорости ветра. Ночью, в пасмурную погоду, а также при ветре 12 м/с и более поправка равна нулю.
P - Атмосферное давление - приведенное к уровню моря атмосферное давление.
Po - Атмосферное давление - измеренное на уровне метеостанции атмосферное давление.
Tmin - Минимальная температура - минимум температуры воздуха на высоте 2 м над землей.
Tmax - Максимальная температура - максимум температуры воздуха на высоте 2 м над землей.
R - Количество осадков - Количество выпавших осадков за период времени, мм. При наведении курсора мыши на число - период времени, за который выпало указанное количество осадков.
R24 - Количество осадков - Количество выпавших осадков за 24 часа, мм.
S - Снежный покров - Высота снежного покрова, см. При наведении курсора мыши на число - состояние снежного покрова и степень покрытия местности в баллах.